Location: Unspecified
(35.7250°N, 0.0000°E)
Time: 18:36:30
(UTC+00:00)

Explorer 7 - Pass Details

Date: 21 June 2019
Orbit: 485 x 680 km, 50.3° (Epoch: 20 August)

Event Time Altitude Azimuth Distance (km) Brightness Sun altitude
Rises 13:37:19 0° 315° (NW) 2,956 10.7 66.0°
Reaches altitude 10° 13:40:06 10° 331° (NNW) 2,071 9.9 65.5°
Maximum altitude 13:43:49 22° 22° (NNE) 1,459 9.1 64.8°
Drops below altitude 10° 13:47:37 10° 72° (ENE) 2,112 9.6 64.0°
Sets 13:50:28 0° 88° (E) 3,029 10.3 63.5°
